Location: Unspecified
(32.3306°S, 0.0000°E)
Time: 13:40:41
(UTC+00:00)

Transit 2A Rocket - All Passes

Search period start: 04 April 2026 00:00
Search period end: 14 April 2026 00:00
Orbit: 584 x 899 km, 66.7° (Epoch: 28 March)

Date Brightness Start Highest point End Pass type
(mag) Time Alt. Az. Time Alt. Az. Time Alt. Az.
4 Apr - 01:15:42 10° S 01:20:02 23° SE 01:24:32 10° ENE night (unlit)
4 Apr - 02:57:12 10° SW 03:02:31 46° WNW 03:08:08 10° N night (unlit)
4 Apr - 15:44:25 10° N 15:48:10 30° ENE 15:52:03 10° SE daylight
4 Apr - 17:27:22 10° W 17:30:30 19° SW 17:33:46 10° S daylight
5 Apr - 00:31:36 10° SSE 00:33:59 13° SE 00:36:26 10° ESE night (unlit)
5 Apr - 02:11:20 10° SSW 02:16:55 88° WNW 02:22:50 10° NNE night (unlit)
5 Apr - 15:00:40 10° NE 15:02:48 14° ENE 15:04:57 10° ESE daylight
5 Apr - 16:40:36 10° NW 16:44:37 39° WSW 16:48:51 10° S daylight
6 Apr - 01:25:50 10° SSW 01:31:12 50° ESE 01:36:54 10° NE night (unlit)
6 Apr - 03:09:15 10° WSW 03:13:15 20° WNW 03:17:24 10° NNW night (unlit)
6 Apr - 15:54:37 10° NNW 15:58:54 89° WSW 16:03:24 10° SSE daylight
7 Apr - 00:40:42 10° S 00:45:23 27° ESE 00:50:17 10° ENE night (unlit)
7 Apr - 02:22:36 10° SW 02:27:46 38° WNW 02:33:12 10° N night (unlit)
7 Apr - 15:09:23 10° N 15:13:20 38° ENE 15:17:29 10° SE daylight
7 Apr - 16:53:08 10° W 16:55:50 16° SW 16:58:39 10° SSW daylight
7 Apr - 23:56:11 10° SSE 23:59:23 15° SE 00:02:41 10° E night (unlit)
8 Apr - 01:36:36 10° SSW 01:42:11 74° WNW 01:48:05 10° NNE night (unlit)
8 Apr - 14:25:07 10° NNE 14:27:56 17° ENE 14:30:49 10° ESE daylight
8 Apr - 16:06:02 10° WNW 16:09:54 32° WSW 16:13:57 10° S daylight
9 Apr - 00:50:59 10° SSW 00:56:30 60° ESE 01:02:20 10° NE night (unlit)
9 Apr - 02:35:00 10° WSW 02:38:27 16° WNW 02:42:00 10° NW night (unlit)
9 Apr - 15:19:51 10° NNW 15:24:07 71° WSW 15:28:38 10° SSE daylight
10 Apr - 00:05:44 10° S 00:10:42 32° ESE 00:15:55 10° ENE night (unlit)
10 Apr - 01:48:02 10° SW 01:53:00 32° WNW 01:58:11 10° N night (unlit)
10 Apr - 14:34:24 10° N 14:38:31 49° ENE 14:42:51 10° SE daylight
10 Apr - 16:19:02 10° W 16:21:11 13° SW 16:23:23 10° SSW daylight
10 Apr - 23:20:58 10° S 23:24:45 18° SE 23:28:40 10° E night (unlit)
11 Apr - 01:01:53 10° SSW 01:07:26 61° WNW 01:13:17 10° NNE night (unlit)
11 Apr - 13:49:46 10° NNE 13:53:04 22° ENE 13:56:28 10° ESE daylight
11 Apr - 15:31:31 10° WNW 15:35:10 26° WSW 15:39:00 10° S daylight
12 Apr - 00:16:09 10° SSW 00:21:46 72° ESE 00:27:42 10° NNE night (unlit)
12 Apr - 02:00:57 10° WSW 02:03:37 13° WNW 02:06:21 10° NW night (unlit)
12 Apr - 14:45:07 10° NW 14:49:20 56° WSW 14:53:49 10° SSE daylight
12 Apr - 23:30:47 10° S 23:36:00 38° ESE 23:41:29 10° NE night (unlit)
13 Apr - 01:13:30 10° SW 01:18:12 27° WNW 01:23:04 10° NNW night (unlit)
13 Apr - 13:59:27 10° NNW 14:03:40 64° ENE 14:08:10 10° SSE daylight
13 Apr - 15:45:18 10° WSW 15:46:31 11° SW 15:47:45 10° SSW daylight
13 Apr - 22:45:50 10° S 22:50:06 22° SE 22:54:30 10° ENE night (unlit)
